Regional Weather Roundup
Issued by NWS

Home | Current Version | Previous Version | Graphics & Text | Print | Product List | Glossary On
Versions: 1 2 3 4 5 6 7 8 9 10 11 12 13 14 15 16 17 18 19 20 21 22 23 24 25 26 27
000
ASUS45 KPSR 240910
RWRAZ

ARIZONA HOURLY REGIONAL WEATHER ROUNDUP
NATIONAL WEATHER SERVICE PHOENIX AZ
200 AM MST SUN JUL 24 2016

NOTE: FAIR INDICATES FEW OR NO CLOUDS BELOW 12,000 FEET WITH NO
SIGNIFICANT WEATHER AND/OR OBSTRUCTIONS TO VISIBILITY.

AZZ001>003-036-241000-
NORTHWEST ARIZONA

CITY           SKY/WX    TMP DP  RH WIND       PRES   REMARKS
BULLHEAD CITY  CLEAR     95  55  26 S5        29.72S
KINGMAN        CLEAR     82  47  29 CALM      29.96F
$$

AZZ004>008-015-016-018-241000-
NORTH CENTRAL ARIZONA

CITY           SKY/WX    TMP DP  RH WIND       PRES   REMARKS
GRAND CANYON   CLEAR     58  51  78 CALM      30.25F
WILLIAMS       CLEAR     59  48  67 S5        30.32F
PRESCOTT       CLEAR     71  55  56 CALM      30.10F
FLAGSTAFF      CLEAR     57  48  72 NE3       30.27R
PAYSON         CLEAR     75  45  33 E6        30.13S
PAGE           CLEAR     86  37  17 SW5       29.99S
$$

AZZ009>014-017-241000-
NORTHEAST ARIZONA

CITY           SKY/WX    TMP DP  RH WIND       PRES   REMARKS
WINSLOW        PTCLDY    72  45  37 S3        30.08F
SAINT JOHNS    CLOUDY    73  48  41 S8        30.15F
WINDOW ROCK    MOCLDY    63  53  70 CALM      30.25F
SHOW LOW       MOCLDY    64  48  55 CALM      30.23F
$$

AZZ023-241000-
GREATER PHOENIX AREA

CITY           SKY/WX    TMP DP  RH WIND       PRES   REMARKS
PHOENIX        PTCLDY    96  57  27 W12       29.75F
BUCKEYE        PTCLDY    90  57  33 SW8       29.79S
LUKE AFB       CLEAR     94  58  29 SW15      29.75S
DEER VALLEY    CLEAR     93  55  27 W7        29.79S
SCOTTSDALE     CLEAR     94  56  27 W6        29.81S
MESA-GATEWAY   PTCLDY    93  59  31 CALM      29.80S
$$

AZZ027-028-241000-
SOUTHWEST MARICOPA COUNTY AND PINAL COUNTY

CITY           SKY/WX    TMP DP  RH WIND       PRES   REMARKS
CASA GRANDE    PTCLDY    90  59  35 S6        29.84R
GILA BEND      FAIR      92  56  29 S7        29.77S
$$

AZZ503-504-507>509-241000-
SOUTHEAST ARIZONA

CITY           SKY/WX    TMP DP  RH WIND       PRES   REMARKS
TUCSON         CLEAR     87  58  37 S7        29.94S
DAVIS-MONTHAN  CLEAR     84  58  40 S6        29.93S
NOGALES        MOCLDY    78  60  53 SE5       30.07R
SIERRA VISTA   CLOUDY    81  54  39 W8        30.11S
DOUGLAS        CLOUDY    77  62  59 S13       30.09R
SAFFORD        CLEAR     85  49  28 NE7       29.92R
$$

AZZ020-021-025-026-031-241000-
SOUTHWEST ARIZONA

CITY           SKY/WX    TMP DP  RH WIND       PRES   REMARKS
YUMA           CLEAR     89  66  46 S7        29.73S
$$

CAZ031-033-041-043-047-048-061-241000-
SOUTHERN CALIFORNIA

CITY           SKY/WX    TMP DP  RH WIND       PRES   REMARKS
DOWNTOWN L.A.  CLEAR     72  65  78 CALM      29.80F
L.A. AIRPORT   PTCLDY    70  65  84 SE5       29.81S
SAN DIEGO      MOCLDY    66  66 100 S6        29.84S
BURBANK        CLEAR     72  54  53 CALM      29.83F
ONTARIO        CLEAR     76  58  53 CALM      29.85S
RIVERSIDE      CLEAR     76  59  55 CALM      29.85S
PALM SPRINGS   CLEAR     91 N/A N/A NE3       29.77S
EL CENTRO NAS  CLEAR     87  73  62 SE6       29.70F
IMPERIAL       PTCLDY    89  75  63 SE10      29.69S
BLYTHE         CLEAR     91  63  39 S12       29.73S
NEEDLES        CLEAR    100  51  19 W8        29.74R
$$

NVZ020-UTZ003-241000-
SOUTHERN NEVADA-UTAH

CITY           SKY/WX    TMP DP  RH WIND       PRES   REMARKS
LAS VEGAS      CLEAR     96  45  17 S7        29.76F
SALT LAKE CITY CLEAR     66  44  45 SW3       30.06R
$$

NMZ009-TXZ055-241000-
NEW MEXICO-WEST TEXAS

CITY           SKY/WX    TMP DP  RH WIND       PRES   REMARKS
ALBUQUERQUE    MOCLDY    80  50  34 CALM      30.13F
EL PASO        CLEAR     83  45  26 S6        29.95F
$$


........................KEY........................
SKY/WX - SKY CONDITION/WEATHER
TMP    - TEMPERATURE IN FAHRENHEIT
DP     - DEW POINT IN FAHRENHEIT
RH     - RELATIVE HUMIDITY IN PERCENT
WIND   - DIRECTION AND SPEED IN MILES PER HOUR (MPH)
VRB    - VARIABLE WIND DIRECTION
PRES   - MEAN SEA LEVEL PRESSURE IN INCHES OF MERCURY
         F - FALLING PRESSURE   R - RISING PRESSURE
         S - STEADY PRESSURE
VSB    - VISIBILITY IN MILES
HX     - HEAT INDEX IN FAHRENHEIT
WCI    - WIND CHILL INDEX IN FAHRENHEIT
TC     - TEMPERATURE IN CELSIUS WHICH IS ALSO KNOWN AS
         TEMPERATURE IN CENTIGRADE
AFB    - AIR FORCE BASE
         LUKE AFB IS LUKE AIR FORCE BASE
         DAVIS-MONTHAN IS DAVIS-MONTHAN AIR FORCE BASE
NAS    - NAVAL AIR STATION
         EL CENTRO NAS IS EL CENTRO NAVAL AIR STATION
N/A    - NOT AVAILABLE





USA.gov is the U.S. government's official web portal to all federal, state and local government web resources and services.